Temp
-10 -11 -12 -12 -12 -13 -14 -12 -12 -13 -12 -12 -12 -12 -12 -12 -12 -12 -12 -12 -13 -13 -14 -14 -15 -15 -16 -16 -18 -19 -19 -20 -20 -20 -20 -20 -20 -20 -20 -20 -20 -19 -19
-11 -11 -12 -12 -12 -13 -13 -13 -13 -13 -12 -12 -12 -12 -12 -12 -12 -12 -12 -12 -13 -14 -14 -14 -15 -16 -16 -17 -18 -19 -20 -20 -20 -20 -20 -20 -20 -20 -20 -20 -20 -20 -20
-12 -12 -12 -12 -12 -13 -13 -13 -13 -13 -12 -12 -12 -13 -12 -12 -12 -12 -12 -13 -13 -14 -14 -15 -15 -16 -17 -17 -19 -19 -20 -20 -20 -20 -20 -20 -20 -20 -20 -20 -20 -20 -20
-12 -12 -12 -13 -12 -13 -13 -13 -13 -13 -13 -12 -12 -12 -13 -13 -12 -13 -13 -13 -14 -14 -15 -15 -16 -17 -17 -18 -19 -20 -20 -20 -20 -20 -20 -20 -20 -20 -20 -20 -20 -20 -20
-12 -13 -13 -12 -12 -12 -13 -13 -13 -13 -13 -13 -12 -12 -13 -12 -13 -13 -13 -13 -14 -14 -15 -15 -16 -17 -18 -19 -20 -20 -20 -20 -21 -21 -21 -21 -21 -21 -21 -21 -21 -21 -21
-13 -12 -12 -12 -12 -13 -13 -13 -13 -13 -13 -13 -13 -13 -13 -13 -13 -13 -13 -14 -14 -15 -15 -16 -17 -18 -19 -20 -20 -20 -21 -21 -21 -21 -22 -22 -22 -22 -22 -22 -22 -22 -22
-13 -13 -13 -13 -13 -13 -13 -13 -13 -13 -13 -13 -13 -14 -14 -14 -13 -14 -14 -14 -14 -15 -16 -17 -17 -18 -20 -20 -21 -21 -21 -21 -22 -22 -22 -23 -23 -23 -23 -24 -24 -24 -24
-13 -13 -13 -13 -13 -13 -13 -12 -13 -13 -13 -13 -13 -13 -13 -13 -14 -14 -14 -14 -15 -15 -16 -17 -18 -19 -20 -21 -21 -21 -21 -22 -22 -23 -23 -23 -23 -23 -24 -25 -25 -25 -25
-13 -13 -13 -14 -13 -13 -13 -12 -13 -13 -13 -13 -13 -13 -14 -14 -14 -14 -14 -14 -15 -16 -17 -18 -19 -20 -21 -21 -21 -22 -22 -23 -23 -23 -23 -24 -24 -24 -26 -26 -27 -27 -27
-14 -13 -14 -14 -14 -13 -13 -13 -13 -13 -13 -13 -14 -14 -14 -14 -14 -14 -14 -14 -15 -16 -17 -18 -19 -20 -21 -21 -21 -22 -23 -23 -23 -23 -24 -24 -24 -25 -25 -26 -26 -26 -26
-14 -14 -14 -14 -14 -14 -13 -13 -13 -13 -13 -13 -13 -14 -14 -14 -14 -14 -15 -15 -16 -17 -18 -19 -20 -21 -21 -21 -22 -22 -23 -23 -23 -23 -24 -24 -25 -25 -25 -25 -25 -25 -26
-14 -14 -14 -14 -14 -14 -13 -13 -13 -13 -13 -14 -14 -14 -14 -14 -14 -14 -15 -15 -16 -18 -19 -19 -21 -21 -21 -21 -22 -23 -22 -23 -23 -23 -24 -24 -25 -25 -25 -25 -25 -26 -25
-14 -14 -14 -14 -14 -14 -15 -14 -13 -13 -13 -13 -14 -14 -15 -14 -14 -15 -15 -16 -17 -18 -19 -20 -21 -21 -21 -22 -22 -22 -22 -23 -23 -23 -24 -24 -25 -25 -25 -25 -25 -25 -24
-15 -14 -15 -15 -14 -14 -14 -14 -13 -13 -14 -14 -14 -15 -14 -14 -15 -15 -15 -16 -18 -19 -19 -20 -21 -21 -21 -21 -22 -22 -22 -22 -23 -23 -23 -24 -24 -24 -24 -24 -24 -24 -24
-15 -15 -15 -15 -15 -14 -14 -15 -14 -14 -14 -14 -14 -15 -14 -15 -15 -15 -16 -17 -18 -19 -20 -21 -21 -21 -21 -22 -22 -22 -22 -22 -22 -23 -23 -23 -23 -24 -24 -23 -23 -23 -23
-15 -15 -15 -15 -15 -14 -14 -14 -14 -14 -14 -14 -15 -14 -15 -15 -15 -15 -17 -18 -18 -19 -20 -21 -21 -21 -21 -22 -22 -22 -22 -22 -22 -22 -23 -23 -23 -23 -23 -23 -23 -23 -23
-15 -15 -15 -15 -15 -15 -15 -14 -14 -14 -14 -15 -15 -15 -15 -15 -15 -16 -17 -18 -19 -20 -21 -21 -20 -21 -21 -22 -22 -22 -22 -22 -22 -22 -22 -22 -23 -23 -23 -23 -23 -23 -22
-15 -15 -15 -15 -15 -15 -15 -14 -14 -14 -15 -15 -15 -15 -15 -15 -16 -17 -18 -19 -19 -20 -21 -21 -21 -21 -21 -22 -21 -22 -22 -22 -22 -22 -22 -22 -22 -23 -23 -22 -22 -22 -22
-15 -16 -15 -16 -15 -15 -16 -15 -14 -14 -15 -15 -15 -15 -15 -16 -16 -17 -18 -19 -19 -20 -21 -20 -21 -21 -21 -21 -21 -21 -21 -22 -22 -22 -22 -22 -22 -22 -22 -22 -22 -22 -22
-15 -16 -16 -16 -15 -15 -15 -15 -14 -15 -15 -15 -15 -15 -15 -16 -17 -18 -19 -19 -20 -20 -20 -20 -21 -21 -21 -21 -21 -21 -21 -21 -21 -21 -21 -21 -21 -21 -22 -22 -22 -22 -22
-16 -16 -16 -16 -15 -15 -15 -15 -15 -16 -16 -15 -15 -16 -17 -16 -17 -18 -19 -19 -20 -20 -20 -20 -21 -21 -21 -21 -21 -21 -21 -21 -21 -21 -21 -21 -21 -21 -21 -21 -21 -22 -22
-17 -16 -16 -16 -15 -15 -15 -15 -16 -16 -16 -15 -16 -16 -16 -17 -18 -18 -19 -20 -20 -20 -20 -20 -21 -21 -21 -21 -21 -21 -21 -21 -21 -21 -21 -21 -21 -21 -21 -21 -21 -21 -21
-16 -16 -16 -16 -15 -15 -15 -15 -17 -16 -16 -16 -16 -16 -17 -17 -18 -19 -19 -20 -20 -20 -20 -20 -21 -21 -21 -21 -21 -21 -21 -21 -21 -21 -21 -21 -21 -21 -21 -21 -21 -21 -21
-16 -16 -16 -16 -15 -15 -15 -16 -16 -16 -16 -16 -16 -16 -17 -18 -19 -19 -20 -20 -19 -20 -20 -21 -21 -21 -21 -21 -21 -21 -21 -21 -21 -21 -20 -20 -20 -20 -20 -20 -20 -20 -20
-16 -15 -15 -15 -15 -15 -15 -15 -16 -16 -16 -16 -16 -16 -17 -19 -19 -19 -19 -19 -20 -20 -20 -21 -21 -21 -21 -21 -21 -20 -20 -20 -20 -20 -20 -20 -20 -20 -19 -19 -19 -19 -19
-15 -16 -15 -15 -15 -15 -16 -16 -16 -16 -16 -16 -16 -17 -18 -19 -19 -19 -19 -19 -20 -20 -21 -21 -21 -20 -20 -20 -20 -20 -20 -20 -20 -20 -20 -19 -19 -19 -19 -19 -19 -19 -19
Height
5796 5796 5797 5795 5792 5791 5791 5791 5789 5788 5784 5780 5776 5773 5769 5766 5763 5758 5753 5747 5740 5734 5726 5719 5711 5703 5695 5687 5681 5675 5670 5666 5662 5656 5651 5646 5642 5640 5636 5633 5630 5628 5625
5793 5792 5791 5789 5787 5783 5786 5784 5783 5781 5778 5774 5770 5767 5763 5762 5757 5752 5747 5741 5734 5727 5719 5712 5704 5697 5687 5679 5674 5667 5662 5657 5653 5649 5643 5638 5633 5630 5627 5624 5620 5617 5615
5788 5786 5783 5780 5779 5779 5780 5779 5777 5776 5772 5769 5765 5760 5757 5754 5751 5747 5741 5735 5728 5719 5712 5704 5696 5689 5679 5672 5666 5659 5654 5648 5643 5639 5634 5629 5624 5619 5616 5612 5608 5605 5602
5782 5779 5777 5774 5775 5775 5774 5772 5771 5770 5767 5764 5760 5754 5750 5747 5744 5741 5735 5729 5721 5712 5704 5697 5689 5681 5671 5664 5657 5651 5644 5639 5633 5628 5623 5617 5612 5607 5603 5599 5595 5591 5588
5775 5773 5771 5771 5768 5768 5768 5766 5765 5763 5761 5758 5754 5748 5743 5740 5737 5733 5729 5722 5713 5704 5696 5689 5680 5672 5662 5656 5649 5643 5636 5630 5623 5616 5610 5604 5598 5592 5588 5583 5580 5576 5573
5771 5767 5765 5763 5762 5761 5762 5760 5758 5756 5754 5749 5747 5742 5737 5732 5730 5726 5720 5714 5705 5696 5689 5680 5672 5663 5654 5646 5640 5634 5627 5620 5613 5605 5597 5591 5584 5577 5570 5565 5561 5558 5556
5766 5762 5759 5757 5755 5754 5751 5749 5750 5748 5745 5744 5741 5736 5731 5728 5724 5719 5712 5705 5698 5689 5681 5672 5663 5653 5646 5638 5631 5623 5617 5610 5602 5593 5584 5576 5568 5560 5552 5546 5544 5542 5541
5760 5757 5753 5750 5748 5745 5741 5739 5740 5739 5738 5737 5735 5729 5726 5723 5718 5712 5705 5698 5690 5682 5674 5664 5655 5646 5637 5630 5622 5614 5606 5597 5587 5578 5570 5562 5556 5549 5540 5535 5532 5531 5531
5753 5750 5747 5743 5739 5736 5736 5733 5732 5733 5730 5728 5726 5723 5719 5716 5710 5704 5697 5691 5682 5674 5666 5655 5647 5639 5630 5622 5614 5605 5595 5584 5575 5567 5562 5556 5549 5542 5535 5531 5528 5528 5527
5744 5742 5740 5736 5731 5729 5731 5729 5726 5726 5723 5721 5718 5714 5711 5708 5702 5696 5690 5682 5675 5668 5659 5649 5640 5632 5622 5614 5605 5595 5584 5575 5567 5561 5556 5550 5544 5539 5535 5531 5529 5527 5526
5736 5735 5733 5730 5726 5722 5721 5720 5718 5717 5714 5714 5709 5707 5705 5700 5695 5688 5681 5675 5669 5659 5650 5642 5634 5624 5615 5607 5596 5585 5577 5571 5563 5557 5551 5545 5540 5536 5533 5529 5527 5525 5523
5729 5728 5725 5722 5718 5715 5709 5703 5709 5707 5706 5703 5702 5701 5697 5693 5687 5679 5674 5668 5661 5652 5643 5636 5627 5617 5609 5598 5588 5579 5573 5566 5560 5554 5548 5542 5538 5533 5530 5526 5524 5521 5519
5721 5719 5717 5715 5713 5708 5702 5695 5696 5700 5699 5697 5695 5694 5690 5685 5679 5672 5667 5661 5653 5645 5638 5630 5619 5610 5600 5591 5582 5575 5569 5563 5557 5551 5545 5540 5535 5531 5527 5523 5521 5518 5516
5712 5710 5709 5706 5704 5700 5694 5689 5689 5690 5690 5689 5690 5686 5683 5678 5674 5667 5661 5655 5648 5640 5632 5622 5611 5603 5594 5585 5578 5572 5567 5561 5555 5550 5544 5538 5533 5529 5526 5523 5519 5516 5514
5703 5701 5701 5699 5696 5692 5686 5687 5684 5685 5683 5683 5681 5678 5676 5672 5667 5661 5655 5649 5641 5632 5624 5612 5606 5598 5588 5581 5575 5571 5566 5560 5554 5548 5542 5536 5532 5528 5524 5521 5518 5516 5513
5692 5692 5693 5692 5689 5685 5682 5681 5681 5678 5677 5678 5676 5673 5670 5664 5660 5655 5648 5642 5634 5625 5614 5607 5601 5592 5584 5578 5573 5568 5564 5558 5552 5546 5539 5534 5529 5525 5521 5518 5516 5513 5511
5681 5683 5684 5683 5682 5679 5675 5674 5674 5674 5673 5671 5669 5666 5663 5659 5653 5648 5643 5636 5625 5616 5609 5604 5595 5587 5580 5576 5570 5565 5560 5554 5548 5542 5536 5532 5527 5523 5519 5515 5512 5510 5507
5672 5674 5675 5674 5674 5673 5670 5666 5670 5669 5668 5666 5664 5661 5657 5652 5648 5643 5636 5628 5619 5610 5605 5598 5589 5582 5576 5573 5568 5562 5555 5549 5543 5538 5533 5529 5524 5520 5515 5512 5509 5506 5503
5662 5665 5667 5667 5667 5667 5664 5661 5663 5664 5662 5662 5658 5655 5652 5647 5643 5636 5628 5620 5612 5607 5601 5593 5585 5579 5574 5570 5564 5558 5552 5546 5540 5535 5530 5525 5521 5517 5512 5509 5505 5502 5499
5652 5657 5658 5659 5659 5658 5657 5656 5657 5658 5658 5655 5653 5650 5646 5642 5636 5628 5621 5614 5608 5602 5595 5587 5581 5575 5570 5565 5560 5554 5548 5543 5537 5532 5527 5522 5517 5513 5509 5504 5501 5497 5494
5644 5648 5650 5651 5651 5651 5650 5654 5654 5654 5652 5649 5647 5644 5641 5637 5629 5623 5617 5610 5604 5598 5590 5583 5577 5572 5566 5561 5555 5550 5544 5539 5533 5528 5522 5517 5513 5508 5504 5500 5496 5493 5489
5635 5639 5641 5642 5644 5647 5648 5650 5650 5650 5648 5645 5642 5640 5636 5630 5623 5618 5613 5607 5600 5593 5585 5579 5573 5569 5564 5558 5552 5546 5540 5534 5529 5523 5517 5512 5508 5503 5499 5496 5492 5489 5486
5627 5631 5634 5637 5639 5642 5644 5647 5646 5647 5644 5641 5639 5636 5631 5625 5620 5615 5609 5603 5595 5588 5581 5576 5572 5567 5561 5555 5549 5543 5537 5531 5525 5520 5514 5509 5505 5501 5497 5493 5488 5485 5482
5618 5623 5627 5629 5631 5638 5640 5641 5641 5641 5640 5639 5636 5631 5626 5621 5616 5611 5605 5597 5591 5585 5579 5575 5571 5565 5558 5552 5546 5540 5534 5529 5523 5518 5513 5508 5503 5498 5493 5489 5486 5483 5481
5611 5616 5619 5624 5629 5632 5634 5636 5639 5639 5638 5635 5631 5627 5623 5618 5612 5606 5598 5593 5588 5582 5578 5574 5568 5562 5556 5550 5544 5538 5533 5527 5522 5517 5512 5507 5502 5497 5493 5489 5486 5485 5484
5604 5609 5614 5619 5623 5628 5631 5637 5637 5636 5634 5631 5628 5624 5619 5614 5606 5600 5596 5591 5586 5581 5577 5572 5566 5560 5554 5548 5543 5538 5533 5528 5523 5517 5513 5509 5505 5502 5498 5495 5493 5491 5490
Wind_Speed
20 20 25 31 34 43 19 20 20 23 26 23 26 27 27 28 32 36 38 40 41 41 43 45 45 45 44 43 41 37 36 34 32 35 34 37 38 34 35 35 35 36 36
26 23 26 27 36 23 19 20 21 26 26 26 28 28 31 32 32 36 39 41 42 43 45 47 46 47 44 42 40 39 39 38 35 33 33 36 37 36 36 38 38 38 38
27 31 30 32 28 24 20 22 24 28 27 27 25 28 31 32 35 38 41 42 43 43 45 47 49 48 45 43 40 42 40 40 38 38 37 38 39 41 40 40 41 41 42
27 31 31 36 30 30 24 24 28 28 28 29 31 35 37 38 33 38 42 43 44 44 46 49 49 48 45 42 40 42 42 42 43 42 42 43 44 45 45 45 46 46 47
26 29 33 32 32 33 28 29 31 30 30 31 36 30 27 27 33 38 42 45 45 45 48 50 50 47 43 41 40 41 43 44 46 45 47 48 49 51 51 52 51 51 51
26 28 28 24 25 33 31 35 36 34 30 32 36 34 44 28 35 38 41 45 45 46 49 50 49 46 43 42 42 44 45 45 47 48 49 50 53 55 56 55 52 49 46
25 25 29 30 30 36 44 42 36 33 31 29 33 38 27 32 35 38 41 45 46 47 48 48 49 45 43 43 45 46 47 48 48 50 52 53 54 51 51 48 43 38 35
26 27 27 30 31 34 37 36 35 30 24 21 26 27 29 33 34 39 43 45 47 49 49 49 47 45 44 45 47 48 50 50 51 53 50 41 34 38 34 29 27 25 23
30 29 30 31 31 28 25 35 32 32 25 28 29 29 30 33 34 39 44 47 49 50 50 49 47 45 45 46 49 51 50 52 49 37 27 33 33 31 25 19 16 12 13
32 31 33 33 27 25 30 30 17 26 21 25 30 31 31 30 34 41 43 47 51 51 48 46 45 45 45 48 51 49 48 37 31 34 34 30 26 23 19 17 15 13 13
33 33 33 32 28 24 28 25 28 30 32 33 32 30 31 29 36 39 43 47 49 50 47 45 44 44 46 49 47 41 31 34 35 34 33 29 24 22 21 18 17 17 18
33 34 33 32 35 29 31 35 28 27 29 28 29 35 27 31 36 39 42 46 49 48 45 43 42 45 47 47 39 30 36 36 36 34 30 26 24 22 21 20 19 19 17
35 34 34 31 34 35 36 31 27 28 30 33 27 27 25 32 36 39 42 46 47 44 43 40 42 45 47 43 30 34 36 36 35 33 30 26 24 22 21 20 18 15 13
34 34 33 30 35 36 33 30 32 30 26 35 27 24 27 31 36 40 43 45 44 42 40 38 41 45 47 36 32 35 37 37 34 30 28 26 24 23 20 17 16 14 13
36 34 31 32 37 42 38 31 18 21 24 27 30 21 27 32 38 42 43 42 43 41 38 40 43 46 46 32 32 35 34 31 28 26 25 24 23 22 20 16 14 13 12
34 31 31 34 37 40 30 21 15 18 21 26 20 22 26 34 38 42 43 43 42 39 39 41 45 45 38 30 33 33 30 28 28 28 27 24 23 22 21 20 17 15 15
33 32 29 32 34 37 32 26 23 23 25 19 21 21 28 33 37 41 43 41 39 39 39 41 44 43 31 29 33 32 30 29 29 27 25 23 22 22 20 20 18 17 17
40 38 30 34 33 35 37 28 34 31 20 22 19 23 28 32 37 40 39 39 37 37 38 41 42 39 26 28 30 29 31 31 30 27 24 23 22 21 21 20 18 17 17
35 36 31 32 31 35 39 32 28 30 24 16 20 25 28 32 38 37 38 38 38 37 39 43 41 32 23 27 27 28 28 27 27 26 24 24 22 21 22 21 21 20 19
41 34 34 30 29 36 32 26 28 24 16 16 21 26 28 33 35 36 38 37 37 38 41 42 40 25 25 27 28 29 27 27 26 26 25 24 23 22 21 22 22 22 23
44 33 32 30 31 32 24 26 27 14 14 17 22 25 29 34 35 37 37 36 37 39 43 41 32 24 27 28 29 28 28 28 27 27 25 24 22 22 22 21 20 20 19
36 31 29 28 27 28 24 25 21 14 15 18 20 25 31 32 35 36 35 34 36 41 42 38 25 26 27 27 27 28 29 29 28 27 26 25 23 22 20 18 18 18 18
30 29 25 23 26 23 25 27 16 13 14 17 22 27 29 32 34 32 32 35 38 41 40 27 24 26 27 26 27 27 28 27 26 25 24 22 19 18 20 20 19 17 15
29 26 20 25 21 23 32 22 9 10 15 19 22 25 29 31 29 30 32 37 39 39 31 22 24 26 26 27 27 26 25 24 22 20 19 20 21 20 18 17 15 11 9
27 21 24 28 36 37 28 13 10 14 17 17 22 26 28 27 27 30 35 36 37 35 23 23 24 24 26 26 25 24 23 20 20 21 19 18 17 17 16 14 12 12 13
28 28 24 35 40 30 18 15 15 13 14 17 22 25 26 25 28 30 34 35 35 26 21 22 23 24 25 23 22 20 18 20 20 19 18 19 21 21 22 23 23 24 24
Wind_Direction
309 305 279 285 282 292 280 285 297 297 300 301 311 302 305 310 311 314 315 318 318 320 321 322 325 323 322 321 318 313 310 309 309 304 301 296 297 295 293 292 291 290 288
304 291 275 276 298 259 267 282 295 295 304 304 314 307 299 304 308 311 314 316 316 316 319 320 321 320 320 319 315 314 313 311 308 304 301 297 297 295 293 291 290 288 287
289 287 286 287 291 269 272 281 287 289 299 300 312 323 307 303 306 311 312 314 314 316 319 318 318 321 320 320 315 311 312 311 310 307 304 301 299 297 295 292 290 289 287
293 294 286 304 289 276 270 274 277 290 294 303 312 313 312 301 304 308 310 312 313 317 318 318 319 321 321 317 312 311 311 310 310 308 307 305 303 300 297 294 293 291 289
300 295 288 295 289 275 262 270 274 282 291 300 316 311 311 299 305 307 311 310 313 317 318 319 322 321 319 315 312 311 311 312 311 309 308 307 305 301 298 295 292 290 290
307 295 289 290 292 283 271 269 274 281 290 304 309 311 310 306 305 307 308 310 315 318 320 319 322 321 319 316 314 315 314 313 311 311 308 305 302 298 296 293 290 289 289
318 305 293 294 284 278 285 285 261 274 288 293 307 306 300 298 301 305 311 313 315 319 320 321 322 322 318 318 317 315 315 315 313 308 306 304 303 301 297 294 292 288 284
315 323 297 284 282 283 290 270 257 270 271 293 300 302 293 295 303 310 313 313 317 320 320 321 324 321 319 320 319 321 319 317 312 309 310 312 318 323 313 306 301 295 286
303 318 320 300 297 292 278 272 256 284 257 266 292 298 296 299 307 312 313 315 319 320 320 326 326 320 321 323 325 323 320 315 317 321 322 321 321 335 333 332 322 309 302
300 309 313 318 304 293 285 277 258 275 264 276 293 291 279 302 309 308 314 317 318 320 322 327 323 321 326 326 325 324 320 330 334 330 327 327 328 326 334 335 327 319 309
294 301 307 312 302 299 289 262 261 277 256 287 288 280 295 303 305 312 316 316 319 321 326 326 323 325 328 327 329 327 338 335 333 331 331 330 328 328 324 322 318 313 309
290 294 299 307 312 285 269 268 291 265 297 278 279 271 297 302 308 313 316 319 320 322 327 325 324 329 330 333 334 339 337 339 337 337 336 335 332 329 326 323 320 315 314
284 289 293 300 308 298 284 280 271 276 288 263 266 281 298 304 311 313 318 320 320 324 325 325 329 333 336 338 341 339 339 339 337 337 336 335 334 335 334 331 331 326 323
280 287 289 300 306 311 286 286 275 260 281 261 271 293 300 311 311 314 319 319 320 323 324 330 337 336 338 342 343 341 337 335 335 333 335 338 337 337 337 336 333 334 328
275 281 280 290 300 308 300 288 269 270 277 275 270 301 310 311 312 316 318 319 321 324 328 340 337 339 342 341 341 338 334 334 333 332 334 336 337 336 336 338 334 327 319
269 278 281 284 293 304 291 273 301 284 271 284 297 301 305 310 313 315 318 319 324 329 339 340 337 340 341 337 336 333 332 331 332 334 335 334 334 333 332 334 333 326 320
260 280 284 282 287 304 292 260 279 277 274 279 289 299 304 311 314 317 317 324 331 336 339 335 337 341 338 333 329 329 331 332 333 334 335 333 332 329 330 329 327 324 321
261 279 282 276 280 295 282 260 264 270 275 279 289 299 308 312 315 315 322 330 332 335 334 334 339 339 335 327 326 329 330 331 334 335 334 332 331 328 327 327 325 320 317
264 277 273 275 276 288 278 275 254 261 278 283 300 306 308 316 311 320 330 332 333 333 333 337 338 337 329 325 328 330 331 331 331 331 330 330 330 327 324 323 321 318 316
266 271 268 274 276 286 276 234 240 261 269 294 298 302 314 311 319 329 333 330 331 334 336 337 338 331 330 330 330 332 332 331 330 330 331 330 328 327 323 318 315 312 311
263 259 263 268 277 288 239 225 250 254 274 292 298 312 314 316 325 330 331 331 334 335 337 338 334 332 332 331 332 331 330 332 332 331 330 328 325 322 320 318 317 317 316
249 251 257 272 279 271 227 230 246 253 277 296 310 312 313 320 327 329 332 332 334 337 337 336 333 330 331 333 333 332 333 332 333 333 331 330 328 327 327 327 326 324 320
235 245 253 261 268 253 222 242 240 265 295 305 309 308 316 323 323 330 332 335 339 337 336 335 330 330 333 335 335 334 334 336 336 332 330 333 337 336 332 328 327 328 333
228 239 242 242 240 221 227 234 244 283 293 300 305 313 318 321 329 333 334 342 338 335 334 331 330 333 336 338 338 339 340 339 338 342 347 342 338 336 335 336 340 349 21
225 221 224 218 229 214 229 249 251 261 284 300 308 314 319 327 332 338 342 337 336 335 331 331 334 338 340 340 343 346 347 357 357 354 355 356 1 10 13 20 37 53 66
216 205 214 200 200 213 209 219 231 269 291 305 310 322 329 332 341 342 337 336 336 332 329 334 339 342 344 349 353 359 13 10 11 16 23 40 47 48 53 61 68 76 84